Погода в Кишиневе

Погода в Кишиневе : погода сейчас, прогноз погоды и архив. Всё, что Вы хотите узнать о погоде в Кишиневе!

Хотите узнать прогноз погоды в Кишинёве? Тогда Вам сюда: Погода в Кишинёве

Поиск расширенной информации на нашем сайте:

Другие новости

Новости СМИ2

Главная страница сайта

Новости сайта

03.07.2017

Напоминаем, что на нашем специализированном сайте Метеоцентр.Азия вы можете получить высокодетализированные автоматические прогнозы погоды по пунктам России, СНГ и мира в авиационном формате (включающие направление и скорость ветра, видимость, явления погоды, количество и форму облачности, нижнюю и верхнюю границу облачности).


Погода в Кишиневе - сегодня

Время (UTC), дата Ветер
(°,м/с) 
Видим.   Явления Облачность Т
(°С)
Тd
(°С)
f(%) Тe
(°С)
Pmin
(гПа)
dP
(гПа)
Po
(мм)
O2
(г/м3)
Тmin Tmax R s Состояние
почвы
18 22.09.18 310 (СЗ) 20000 м    10/0 средняя, верхняя 
[Ac trans|Ci fib]
+21.3 +8.9 45 +21  1014.7  0.8  746  277    +28.6       
21 22.09.18 340 (С) 20000 м    10/0 средняя, верхняя 
[Ac trans|Ci fib]
+16.3 +6.4 52 +16  1016.7  1.6  747  283           
00 23.09.18 340 (С) 20000 м    10/10 600 м 
[Ac und]
+14.3 +6.9 61 +14  1018.1  1.3  748  285           
03 23.09.18 350 (С) 20000 м  слаб. ливневой дождь  10/8 600 м кучево-дожд., средняя 
[Cb calv|Ac trans]
+12.1 +8.9 81 +12  1018.8  0.5  749  287  +12         
06 23.09.18 340 (С) 20000 м  {ливн. осадки}  10/5 600 м средняя 
[Cu Sc|Ac trans]
+11.5 +8.9 84 +12  1020.1  1.2  750  288  +11.4       
09 23.09.18 320 (СЗ) 20000 м    10/3 600 м средняя, верхняя 
[Cu hum|Ac trans|Ci fib]
+15.4 +6.9 57 +16  1020.2  0.4  750  285           
12 23.09.18 300 (СЗ) 20000 м    5/1 600 м средняя, верхняя 
[Cu hum|Ac lent|Ci fib]
+18.4 +3.8 38 +19  1019.3  -0.7  749  282           
15 23.09.18 220 (ЮЗ) 20000 м    8/3 600 м средняя, верхняя 
[Cu hum|Ac trans|Ci fib]
+18 +6.2 46 +19  1018.5  -0.8  749  282           
18 23.09.18 200 (Ю) 20000 м    1/0 верхняя 
[Ci fib]
+13.1 +8.2 72 +14  1019  0.2  749  287    +20.2       
21 23.09.18 180 (Ю) 20000 м    3/0 верхняя 
[Ci fib]
+11.5 +7.8 78 +12  1017.8  -1.3  748  288           
00 24.09.18 180 (Ю) 20000 м    ясно 
+11 +8.2 83 +10  1014.6  -3.2  746  287           
03 24.09.18 150 (ЮВ) 20000 м    6/0 средняя, верхняя 
[Ac trans|Ci fib]
+12.1 +10 87 +13  1012  -2.5  744  285  +10.9         
06 24.09.18 200 (Ю) 10 км    10/6 600 м средняя 
[Cu med, cong|Ac trans]
+16.5 +14.2 86 +24  1008.7  -2.9  742  279  +10.9         
09 24.09.18 210 (ЮЗ) 20000 м    10/10 600 м 
[Cu Sc]
+20.5 +14.6 69 +29  1007.3  -1.1  741  275           
12 24.09.18 330 (СЗ) 10{15}  20000 м  слаб. ливневой дождь  10/10 300 м кучево-дожд. 
[Cb calv]
+15.8 +12.7 82 +20  1009.9  2.3  743  280    -1.5       
15 24.09.18 330 (СЗ) 8{14}  10 км  дождь{ливн. осадки}  10/10 600 м 
[Ns]
+10.3 +8.7 90 +8  1013.5  3.1  745  288           
18 24.09.18 310 (СЗ) 20000 м  в посл. час дождь  10/10 600 м 
[Ns]
+9.6 +7.4 86 +9  1015.8  2.2  746  289    +2     
21 24.09.18 300 (СЗ) 20000 м    10/10 600 м 
[Ns]
+10 +5.8 75 +8  1017.8  748  290           
00 25.09.18 310 (СЗ) 20000 м    3/0 верхняя 
[Ci fib]
+8.7 +2.7 66 +7  1018.5  0.5  748  292           
03 25.09.18 330 (СЗ) 20000 м    ясно 
+7.5 +2.2 69 +6  1020  1.4  749  294           
06 25.09.18 320 (СЗ) 20000 м    5/3 270 м средняя 
[Cu hum|Ac trans]
+9.3 +3.5 67 +7  1021.3  1.4  750  292  +6.6        влажная 
09 25.09.18 340 (С) 7{12}  20000 м    9/9 600 м кучево-дожд. 
[Cb calv]
+10.8 +3.4 60 +9  1023.2  752  291           
12 25.09.18 330 (СЗ) 5{12}  20000 м  в посл. час ливневой дождь  10/10 600 м кучево-дожд. 
[Cb calv]
+11.4 +2.4 54 +10  1024.3  1.1  753  291    -1.3       
15 25.09.18 330 (СЗ) 7{13}  20000 м  в посл. час ливневой дождь  8/4 600 м кучево-дожд., средняя, верхняя 
[Cb calv|Ac trans|Ci fib]
+10.7 +0.7 50 +9  1025.3  0.9  753  292           
18 25.09.18 310 (СЗ) 20000 м  {ливн. осадки}  3/0 средняя 
[Ac trans]
+8.2 +1.8 64 +7  1028.3  2.8  756  295    +12.8  0.4     
Время (UTC), дата Ветер
(°,м/с) 
Видим.   Явления Облачность Т
(°С)
Тd
(°С)
f(%) Тe
(°С)
Pmin
(гПа)
dP
(гПа)
Po
(мм)
O2
(г/м3)
Тmin Tmax R s Состояние
почвы

Для получения пояснительной информации подведите курсор к названию столбца.

ПОГОДА в Кишиневе - архив

Всё, что Вы хотите узнать о погоде в Кишиневе - удобно и подробно!

Выберите нужную дату (начиная с 1 января 2015* года) и нажмите кнопку "Найти".
Будут отображены архивные сводки погоды по пункту Кишинев, начиная с указанной даты.


Отображать данные в формате CSV (для использования в таблицах Excel)


Внимание! Наш архив погоды предназначен исключительно для личного некоммерческого использования в познавательных целях. Если Вам необходимы официальные справки о состоянии погоды (для производственных, юридических, коммерческих и т.п. целей), обращайтесь в органы Росгидромета.

*Примечание: данная дата относится к архиву по метеостанциям СССР (Россия, СНГ, Балтия).
Архив по метеостанциям Зарубежной Европы и Азии (кроме Китая) хранится 10 дней, по другим регионам земного шара (Китай, Африка, Америка, Австралия, Океания) - 1 день.

Кишинев - район местоположения метеостанции


Название, широта, долгота, высота метеостанции:
Кишинев 47°ш. 29°д. 173 м над ур. моря [Молдавия]

Дополнительная информация

В oтличие oт бoльшинства пoгoдных сайтoв мы публикуем пoдрoбную метеoинфoрмацию в детальнoм прoфессиoнальнoм фoрмате.

Характеристики температуры и влажнoсти вoздуха измеряются на высoте 2 м в тени вдали oт зданий и деревьев.
Скoрoсть ветра измеряется на высoте 10 м (на урoвне рoста челoвека скoрoсть ветра ниже в 1.5-2 раза). Если метеoстанция нахoдится в гoрoде или в лесу, тo скoрoсть ветра занижена на 2-4 м/с пo сравнению с oткрытым местoм. Скoрoсть ветра над акватoриями крупных рек и oзёр, а также на вершинах хoлмoв на 2-5 м/с выше, чем в oбычных услoвиях.
Атмoсфернoе давление в разных тoчках местнoсти мoжет значительнo oтличаться oт давления на метеoстанции, в зависимoсти oт услoвий рельефа (при пoдъёме на 10 м давление пoнижается примернo на 1 мм рт.ст.).